1309392032569,88.0300
1309392092569,87.9541
1309392152569,87.8247
1309392212569,87.4623
1309392272569,87.8549
1309392332569,88.2960
1309392392569,87.8468
1309392452569,88.3426
1309392512569,87.5753
1309392572569,87.6434
1309392632569,87.9153
1309392692569,88.1423
1309392752569,87.9924
1309392812569,87.4632
1309392872569,88.2192
1309392932569,88.1634
1309392992569,87.8758
1309393052569,88.3378
1309393112569,87.9680
1309393172569,88.0533
1309393232569,87.4249
1309393292569,87.9803
1309393352569,88.3051
1309393412569,88.0325
1309393472569,88.2979
1309393532569,87.9077
1309393592569,87.9371
1309393652569,87.9543
1309393712569,88.0052
1309393772569,88.0418
1309393832569,88.0918
1309393892569,88.1346
1309393952569,87.6260
1309394012569,87.6750
1309394072569,88.4466
1309394132569,87.6345
1309394192569,87.8753
1309394252569,88.0954
1309394312569,88.3697
1309394372569,87.7172
1309394432569,88.2926
1309394492569,87.4102
1309394552569,87.3328
1309394612569,87.5738
1309394672569,87.7783
1309394732569,87.8377
1309394792569,88.2966
1309394852569,87.5297
1309394912569,87.8440
1309394972569,88.1231
1309395032569,87.7559
1309395092569,87.7126
1309395152569,87.8425
1309395212569,87.8976
1309395272569,87.8501
1309395332569,87.3909
1309395392569,87.8772
1309395452569,87.8279
1309395512569,87.6775
1309395572569,87.2817
1309395632579,87.4500
1309395692579,87.3161
1309395752579,87.8746
1309395812579,88.1113
1309395872579,87.6572
1309395932579,87.8134
1309395992579,87.8205
1309396052579,87.6456
1309396112579,88.2216
1309396172579,87.4764
1309396232579,87.9081
1309396292579,87.6041
1309396352579,88.0710
1309396412579,87.7224
1309396472579,87.8999
1309396532579,87.4259
1309396592579,88.1444
1309396652579,87.8859
1309396712579,87.7515
1309396772579,87.6790
1309396832579,87.8242
1309396892579,87.6122
1309396952579,87.7042
1309397012579,87.9204
1309397072579,88.1128
1309397132579,87.8230
1309397192579,87.8068
1309397252579,87.6993
1309397312579,87.8958
1309397372579,87.9662
1309397432579,87.7807
1309397492579,87.8409
1309397552579,88.1384
1309397612579,88.0142
1309397672579,88.1523
1309397732579,88.0057
1309397792579,87.8827
1309397852579,87.7085
1309397912579,88.5363
1309397972579,88.2802
1309398032579,87.8208
1309398092579,88.1009
1309398152579,88.4475
1309398212579,87.7880
1309398272579,87.9876
1309398332579,88.1029
1309398392579,88.2796
1309398452579,88.7405
1309398512579,87.9955
1309398572579,87.7637
1309398632579,88.3007
1309398692579,88.2441
1309398752579,88.1678
1309398812579,88.2691
1309398872579,87.9250
1309398932579,88.5531
1309398992579,88.0505
1309399052579,88.1678
1309399112579,88.6898
1309399172579,88.3151
1309399232588,88.4315
1309399292588,88.0128
1309399352588,88.0146
1309399412588,88.6035
1309399472588,88.5314
1309399532588,87.9128
1309399592588,88.3072
1309399652588,87.9281
1309399712588,88.9435
1309399772588,87.9060
1309399832588,88.4236
1309399892588,88.2908
1309399952588,88.7223
1309400012588,88.8118
1309400072588,88.6316
1309400132588,88.2483
1309400192588,88.6543
1309400252588,88.5495
1309400312588,88.5603
1309400372588,88.4915
1309400432588,87.9211
1309400492588,88.3945
1309400552588,88.8048
1309400612588,88.6939
1309400672588,88.5482
1309400732588,88.7123
1309400792588,88.3361
1309400852588,88.1581
1309400912588,88.0911
1309400972588,88.0603
1309401032588,88.3485
1309401092588,88.5235
1309401152588,88.5312
1309401212588,88.4068
1309401272588,88.2233
1309401332588,88.5666
1309401392588,88.4625
1309401452588,88.2899
1309401512588,88.3619
1309401572588,87.8547
1309401632588,88.3908
1309401692588,88.5678
1309401752588,88.7504
1309401812588,88.5252
1309401872588,88.8934
1309401932588,88.7495
1309401992588,89.2400
1309402052588,88.5917
1309402112588,88.6168
1309402172588,88.4090
1309402232588,88.9151
1309402292588,88.9622
1309402352588,88.7560
1309402412588,89.0535
1309402472588,88.6630
1309402532588,88.7389
1309402592588,88.8139
1309402652588,88.8784
1309402712588,88.6069
1309402772588,89.0678
1309402832598,88.8901
1309402892598,88.9677
1309402952598,88.9794
1309403012598,89.1267
1309403072598,89.0669
1309403132598,88.6843
1309403192598,88.3358
1309403252598,88.8781
1309403312598,89.0335
1309403372598,88.5149
1309403432598,88.8810
1309403492598,88.6174
1309403552598,88.6900
1309403612598,88.9440
1309403672598,88.8246
1309403732598,88.8196
1309403792598,88.8520
1309403852598,89.1636
1309403912598,88.7666
1309403972598,89.4630
1309404032598,88.8987
1309404092598,89.0274
1309404152598,88.8888
1309404212598,89.2471
1309404272598,88.9050
1309404332598,89.0011
1309404392598,89.1093
1309404452598,88.5020
1309404512598,88.9030
1309404572598,89.0520
1309404632598,88.9806
1309404692598,88.9506
1309404752598,89.1889
1309404812598,89.0669
1309404872598,89.0756
1309404932598,89.2870
1309404992598,88.9356
1309405052598,88.6771
1309405112598,89.6741
1309405172598,89.2893
1309405232598,88.5847
1309405292598,88.9844
1309405352598,88.7176
1309405412598,89.4106
1309405472598,89.1363
1309405532598,89.1867
1309405592598,88.8099
1309405652598,89.2592
1309405712598,89.0674
1309405772598,88.6627
1309405832598,89.1011
1309405892598,88.4752
1309405952598,89.0254
1309406012598,89.1275
1309406072598,88.5787
1309406132598,88.5494
1309406192598,88.6183
1309406252598,88.9670
1309406312598,88.9327
1309406372598,88.6527
1309406432607,88.6875
1309406492607,88.9940
1309406552607,89.0880
1309406612607,89.1355
1309406672607,88.9225
1309406732607,89.2431
1309406792607,89.1485
1309406852607,88.7640
1309406912607,88.4216
1309406972607,88.7151
1309407032607,88.5589
1309407092607,88.9715
1309407152607,88.7203
1309407212607,88.9289
1309407272607,88.8656
1309407332607,88.7706
1309407392607,88.8085
1309407452607,88.5444
1309407512607,88.4917
1309407572607,88.5194
1309407632607,88.9739
1309407692607,88.3499
1309407752607,88.6737
1309407812607,88.8729
1309407872607,88.8731
1309407932607,88.4755
1309407992607,88.6505
1309408052607,89.0546
1309408112607,88.6225
1309408172607,88.4472
1309408232607,88.4390
1309408292607,88.8819
1309408352607,88.9026
1309408412607,88.4522
1309408472607,89.3997
1309408532607,89.2683
1309408592607,88.8239
1309408652607,89.0413
1309408712607,88.9593
1309408772607,88.9061
1309408832607,88.7322
1309408892607,88.9039
1309408952607,88.3739
1309409012607,88.8324
1309409072607,88.7016
1309409132607,89.0590
1309409192607,88.5068
1309409252607,88.6669
1309409312607,88.7367
1309409372607,88.9427
1309409432607,88.8167
1309409492607,88.6005
1309409552607,88.9975
1309409612607,88.6949
1309409672607,88.4979
1309409732607,88.4475
1309409792607,88.6846
1309409852607,88.5643
1309409912607,88.8740
1309409972607,88.8425
1309410032616,88.3828
1309410092616,88.8984
1309410152616,88.4901
1309410212616,88.3886
1309410272616,88.3466
1309410332616,88.3136
1309410392616,88.2453
1309410452616,88.3630
1309410512616,88.4139
1309410572616,88.4487
1309410632616,88.8041
1309410692616,87.8789
1309410752616,89.2695
1309410812616,88.9492
1309410872616,89.1949
1309410932616,88.9726
1309410992616,88.7944
1309411052616,88.2402
1309411112616,88.9174
1309411172616,88.9213
1309411232616,88.8272
1309411292616,88.3874
1309411352616,88.0443
1309411412616,88.5951
1309411472616,88.5524
1309411532616,88.4195
1309411592616,88.3563
1309411652616,88.3716
1309411712616,88.9567
1309411772616,88.4435
1309411832616,88.3825
1309411892616,88.8385
1309411952616,88.7340
1309412012616,88.8130
1309412072616,88.5671
1309412132616,88.8501
1309412192616,87.9599
1309412252616,88.4905
1309412312616,88.3228
1309412372616,88.4783
1309412432616,88.3780
1309412492616,88.4692
1309412552616,88.5884
1309412612616,88.6545
1309412672616,88.4144
1309412732616,88.0510
1309412792616,88.2701
1309412852616,88.3556
1309412912616,88.5001
1309412972616,88.3602
1309413032616,88.3739
1309413092616,88.3201
1309413152616,88.4843
1309413212616,88.1296
1309413272616,88.2419
1309413332616,88.2731
1309413392616,88.3386
1309413452616,88.2963
1309413512616,88.1965
1309413572616,88.4751
1309413632625,88.5447
1309413692625,88.3735
1309413752625,88.4789
1309413812625,88.4661
1309413872625,87.7511
1309413932625,88.0510
1309413992625,88.0937
1309414052625,88.0269
1309414112625,88.6466
1309414172625,87.9134
1309414232625,87.6410
1309414292625,87.8585
1309414352625,88.1305
1309414412625,88.4949
1309414472625,88.2637
1309414532625,88.2339
1309414592625,87.8577
1309414652625,87.8013
1309414712625,88.0891
1309414772625,88.2552
1309414832625,88.1239
1309414892625,88.2766
1309414952625,88.3464
1309415012625,88.3283
1309415072625,87.9521
1309415132625,88.0402
1309415192625,88.2824
1309415252625,88.3475
1309415312625,88.1481
1309415372625,88.1743
1309415432625,88.1710
1309415492625,88.3552
1309415552625,87.9338
1309415612625,88.2566
1309415672625,88.3332
1309415732625,87.4996
1309415792625,88.2551
1309415852625,88.2569
1309415912625,88.0294
1309415972625,88.7637
1309416032625,88.1495
1309416092625,88.4156
1309416152625,88.4128
1309416212625,88.3925
1309416272625,88.5421
1309416332625,88.4601
1309416392625,88.1903
1309416452625,88.0260
1309416512625,87.9995
1309416572625,88.5298
1309416632625,88.0070
1309416692625,88.0190
1309416752625,87.5422
1309416812625,87.9460
1309416872625,88.1068
1309416932625,88.5067
1309416992625,88.4768
1309417052625,88.5520
1309417112625,88.5121
1309417172625,87.9439
1309417232634,88.2137
1309417292634,88.7879
1309417352634,88.2577
1309417412634,88.4026
1309417472634,88.4322
1309417532634,87.8580
1309417592634,88.3831
1309417652634,88.5913
1309417712634,88.3751
1309417772634,88.5155
1309417832634,87.8527
1309417892634,88.0940
1309418432634,88.8588
1309418492634,88.0926
1309418552634,88.5604
1309418612634,87.8347
1309418672634,88.3188
1309418732634,88.1737
1309418792634,88.2365
1309418852634,87.9083
1309418912634,88.5200
1309418972634,88.2436
1309419032634,88.4300
1309419092634,87.7695
1309419152634,88.5356
1309419212634,88.3367
1309419272634,88.0895
1309419332634,88.3780
1309419392634,89.0760
1309419452634,88.4019
1309419512634,88.1335
1309419572634,88.4641
1309419632634,89.1588
1309419692634,88.5693
1309419752634,88.5201
1309419812634,88.7003
1309419872634,88.4268
1309419932634,88.4463
1309419992634,88.5399
1309420052634,88.3201
1309420112634,88.6525
1309420172634,88.2840
1309420232634,88.3077
1309420292634,88.5950
1309420352634,88.9449
1309420412634,88.7407
1309420472634,88.5917
1309420532634,88.4601
1309420592634,88.9056
1309420652634,88.2650
1309420712634,88.3611
1309420772634,88.3128
1309420832642,88.4037
1309420892642,88.8143
1309420952642,88.1828
1309421012642,88.7460
1309421072642,88.5286
1309421132642,88.8478
1309421192642,88.7084
1309421252642,88.2942
1309421312642,88.8576
1309421372642,88.4706
1309421432642,88.6484
1309421492643,88.5243
1309421552643,88.5753
1309421612643,88.7739
1309421672642,88.7101
1309421732642,88.8013
1309421792642,88.3880
1309421852642,88.8477
1309421912642,88.2747
1309421972642,88.6865
1309422032642,88.4879
1309422092642,88.8917
1309422152642,88.7832
1309422212642,88.5383
1309422272642,88.6718
1309422332642,88.7327
1309422392642,88.5812
1309422452642,88.7653
1309422512642,88.8815
1309422572642,88.5788
1309422632642,88.9448
1309422692642,88.4892
1309422752642,88.8046
1309422812642,89.1678
1309422872643,88.5435
1309422932643,88.6963
1309422992642,88.7990
1309423052642,88.7198
1309423112642,88.1955
1309423172642,88.4359
1309423232642,89.0693
1309423292642,89.0211
1309423352642,88.9012
1309423412642,88.9309
1309423472642,89.1917
1309423532642,89.0200
1309423592642,88.7530
1309423652642,88.5740
1309423712642,89.0126
1309423772642,89.2054
1309423832642,89.3432
1309423892642,88.8539
1309423952642,89.0223
1309424012642,88.8460
1309424072642,88.8950
1309424132642,89.0660
1309424192643,89.0997
1309424252643,89.0125
1309424312643,89.1488
1309424372642,89.1281
1309424432651,89.2537
1309424492651,89.2758
1309424552651,89.7642
1309424612651,89.3617
1309424672651,89.6138
1309424732651,89.2780
1309424792651,89.4240
1309424852651,89.9486
1309424912651,89.5750
1309424972651,88.8183
1309425032651,89.3835
1309425092651,89.6707
1309425152651,89.8681
1309425212651,89.6453
1309425272651,89.0935
1309425332651,89.0450
1309425392651,89.5044
1309425452651,89.3169
1309425512651,89.1263
1309425572651,89.0601
1309425632651,89.8874
1309425692651,89.5036
1309425752651,89.2336
1309425812651,89.5574
1309425872651,89.7093
1309425932651,90.0282
1309425992651,89.1795
1309426052651,89.4713
1309426112651,89.7694
1309426172651,89.8538
1309426232651,89.9526
1309426292651,89.4831
1309426352651,89.8370
1309426412651,89.5236
1309426472651,89.9753
1309426532651,89.4494
1309426592651,90.2232
1309426652651,89.7813
1309426712651,90.1023
1309426772651,89.8070
1309426832651,89.6419
1309426892651,89.9537
1309426952651,89.7536
1309427012651,89.6425
1309427072651,90.0460
1309427132651,89.8837
1309427192651,89.7355
1309427252651,89.5655
1309427312651,89.8383
1309427372651,89.5141
1309427432651,89.3172
1309427492651,89.5676
1309427552651,89.5169
1309427612651,89.6473
1309427672651,89.4265
1309427732651,89.4155
1309427792651,89.2356
1309427852651,89.9647
1309427912651,89.5679
1309427972651,89.8096
1309428032660,89.2345
1309428092660,89.4742
1309428152660,89.7114
1309428212660,89.7556
1309428272660,89.5317
1309428332660,89.5493
1309428392660,89.6595
1309428452660,89.2670
1309428512660,89.8187
1309428572660,89.9335
1309428632660,89.4669
1309428692660,89.6319
1309428752660,89.4200
1309428812660,89.0570
1309428872660,89.3780
1309428932660,89.6814
1309428992660,89.6705
1309429052660,89.2101
1309429112660,89.5881
1309429172660,89.4419
1309429232660,89.3714
1309429292660,89.2720
1309429352660,89.5769
1309429412660,88.9340
1309429472660,89.4914
1309429532660,89.0646
1309429592660,89.5856
1309429652660,89.4835
1309429712660,89.1843
1309429772660,89.2276
1309429832660,89.2184
1309429892660,89.6998
1309429952660,89.2906
1309430012660,89.3462
1309430072660,89.3823
1309430132660,89.4362
1309430192660,89.2837
1309430252660,89.1022
1309430312660,89.0847
1309430372660,89.2922
1309430432660,89.9129
1309430492660,89.1476
1309430552660,89.5386
1309430612660,89.7069
1309430672660,89.1052
1309430732660,89.1682
1309430792660,89.4434
1309430852660,89.2124
1309430912660,89.4970
1309430972660,89.2294
1309431032660,89.5948
1309431092660,89.8913
1309431152660,89.1233
1309431212660,89.5527
1309431272660,89.5049
1309431332660,89.9253
1309431392660,88.6499
1309431452660,89.5117
1309431512660,89.4405
1309431572660,89.2685
1309431632669,88.8342
1309431692669,89.2563
1309431752669,89.7440
1309431812669,89.4668
1309431872669,89.2579
1309431932669,89.0607
1309431992669,89.4352
1309432052669,89.5139
1309432112669,89.2436
1309432172669,89.5679
1309432232669,89.1516
1309432292669,89.5661
1309432352669,89.1498
1309432412669,89.3300
1309432472669,89.2546
1309432532669,89.3581
1309432592669,89.3153
1309432652669,89.3839
1309432712669,89.0186
1309432772669,89.5594
1309432832669,89.2309
1309432892669,89.5595
1309432952669,89.5057
1309433012669,89.1254
1309433072669,89.1082
1309433132669,89.2377
1309433192669,89.5288
1309433252669,89.3771
1309433312669,88.4948
1309433372669,89.4616
1309433432669,89.3239
1309433492669,89.2871
1309433552669,88.8617
1309433612669,88.6388
1309433672669,88.8655
1309433732669,89.0361
1309433792669,89.0737
1309433852669,89.1624
1309433912669,89.3072
1309433972669,89.1060
1309434032669,89.0384
1309434092669,89.0396
1309434152669,88.8843
1309434212669,88.5642
1309434272669,89.0727
1309434332669,89.4986
1309434392669,88.5926
1309434452669,88.9138
1309434512669,88.6194
1309434572669,88.9593
1309434632669,89.0199
1309434692669,88.6551
1309434752669,88.9744
1309434812669,88.9463
1309434872669,89.0140
1309434932669,89.2814
1309434992669,88.6594
1309435052669,89.0012
1309435112669,89.2646
1309435172669,88.8053
1309435232678,88.7399
1309435292678,89.0745
1309435352678,89.2628
1309435412678,88.6589
1309435472678,88.9219
1309435532678,88.8064
1309435592678,89.2035
1309435652678,89.2108
1309435712678,88.8597
1309435772678,88.7965
1309435832678,88.8723
1309435892678,88.7197
1309435952678,88.8323
1309436012678,88.6879
1309436072678,88.7470
1309436132678,88.9101
1309436192678,88.6789
1309436252678,89.0956
1309436312678,89.1632
1309436372678,89.0701
1309436432678,88.6167
1309436492678,88.7061
1309436552678,88.9688
1309436612678,89.4360
1309436672678,88.9318
1309436732678,88.9548
1309436792678,89.1274
1309436852678,89.1634
1309436912678,89.2898
1309436972678,89.5869
1309437032678,88.8449
1309437092678,89.4364
1309437152678,89.2771
1309437212678,88.7718
1309437272678,88.7603
1309437332678,88.6024
1309437392678,89.0957
1309437452678,88.7714
1309437512678,89.1492
1309437572678,89.3887
1309437632678,89.0557
1309437692678,89.4215
1309437752678,89.1460
1309437812678,89.1631
1309437872678,89.2987
1309437932678,89.1013
1309437992678,88.8655
1309438052678,88.6333
1309438112678,89.2246
1309438172678,88.6297
1309438232678,89.2052
1309438292678,89.3313
1309438352678,89.4188
1309438412678,89.6711
1309438472678,89.5722
1309438532678,88.8774
1309438592678,89.0251
1309438652678,88.6350
1309438712678,89.3671
1309438772678,89.4656
1309438832687,88.8058
1309438892687,89.3009
1309438952687,89.3520
1309439012687,89.4875
1309439072687,89.0890
1309439132687,89.3211
1309439192687,89.1029
1309439252687,89.3407
1309439312687,89.4664
1309439372687,89.0681
1309439432687,89.2172
1309439492687,89.0334
1309439552687,89.0745
1309439612687,88.9470
1309439672687,89.0749
1309439732687,88.7354
1309439792687,89.4482
1309439852687,88.9348
1309439912687,89.0207
1309439972687,89.0036
1309440032687,89.2387
1309440092687,89.2088
1309440152687,89.6004
1309440212687,89.0888
1309440272687,89.4322
1309440332687,89.1997
1309440392687,89.0808
1309440452687,89.2081
1309440512687,89.2302
1309440572687,89.3704
1309440632687,89.2434
1309440692687,88.7579
1309440752687,89.6945
1309440812687,89.4984
1309440872687,89.2344
1309440932687,89.2405
1309440992687,89.2980
1309441052687,89.1747
1309441112687,89.1179
1309441172687,89.3646
1309441232687,89.3513
1309441292687,89.2472
1309441352687,89.4058
1309441412687,89.1250
1309441472687,89.3531
1309441532687,89.0830
1309441592687,89.3392
1309441652687,89.2693
1309441712687,88.9037
1309441772687,89.2704
1309441832687,89.3848
1309441892687,89.2837
1309441952687,88.9991
1309442012687,89.9387
1309442072687,89.3855
1309442132687,89.7634
1309442192687,89.1357
1309442252687,89.8226
1309442312687,90.0865
1309442372687,89.8510
1309442432696,89.1347
1309442492696,89.9286
1309442552696,89.5965
1309442612696,90.3713
1309442672696,89.4213
1309442732696,89.4738
1309442792696,89.5797
1309442852696,89.4569
1309442912696,89.3918
1309442972696,89.4682
1309443032696,89.8647
1309443092696,89.7862
1309443152696,89.4165
1309443212696,89.6556
1309443272696,89.7530
1309443332696,89.3896
1309443392696,90.0419
1309443452696,89.3740
1309443512696,89.1400
1309443572696,89.4277
1309443632696,89.6985
1309443692696,89.7254
1309443752696,89.7539
1309443812696,89.9817
1309443872696,89.3284
1309443932696,89.7983
1309443992696,89.1961
1309444052696,89.4745
1309444112696,89.3419
1309444172696,89.3611
1309444232696,89.5660
1309444292696,89.5852
1309444352696,88.9709
1309444412696,89.5201
1309444472696,89.4972
1309444532696,89.4275
1309444592696,89.7793
1309444652696,89.4761
1309444712696,89.5768
1309444772696,89.3957
1309444832696,89.4599
1309444892696,89.3602
1309444952696,89.2032
1309445012696,89.1475
1309445072696,89.6206
1309445132696,89.4745
1309445192696,89.3042
1309445252696,89.6362
1309445312696,89.4675
1309445372696,89.1763
1309445432696,89.4457
1309445492696,89.0076
1309445552696,89.0241
1309445612696,88.7202
1309445672696,89.7310
1309445732696,88.9651
1309445792696,88.9216
1309445852696,88.9742
1309445912696,88.9199
1309445972696,90.0495
1309446032705,89.3777
1309446092705,89.0623
1309446152705,89.1260
1309446212705,89.9418
1309446272705,89.1850
1309446332705,89.2248
1309446392705,89.5347
1309446452705,88.8152
1309446512705,89.2908
1309446572705,89.2023
1309446632705,89.3118
1309446692705,89.7255
1309446752705,89.2978
1309446812705,88.9098
1309446872705,89.0508
1309446932705,88.7002
1309446992705,89.4898
1309447052705,88.9612
1309447112705,88.6151
1309447172705,89.6592
1309447232705,89.0742
1309447292705,88.7633
1309447352705,89.4753
1309447412705,88.8744
1309447472705,88.6978
1309447532705,89.0432
1309447592705,88.9297
1309447652705,89.0559
1309447712705,88.8320
1309447772705,89.3230
1309447832705,88.4633
1309447892705,89.5160
1309447952705,89.0055
1309448012705,88.4107
1309448072705,88.7080
1309448132705,89.0586
1309448192705,89.2569
1309448252705,89.4147
1309448312705,89.2505
1309448372705,89.1084
1309448432705,88.7984
1309448492705,88.9407
1309448552705,89.0635
1309448612705,88.6709
1309448672705,89.2415
1309448732705,88.9744
1309448792705,88.9948
1309448852705,88.9340
1309448912705,89.2913
1309448972705,89.4252
1309449032705,89.0456
1309449092705,89.2552
1309449152705,89.5604
1309449212705,89.2426
1309449272705,89.3279
1309449332705,88.9744
1309449392705,89.1423
1309449452705,88.8932
1309449512705,89.3948
1309449572705,89.1077
1309449632714,88.6130
1309449692714,89.2468
1309449752714,89.3299
1309449812714,89.1842
1309449872714,89.0115
1309449932714,89.4487
1309449992714,88.8791
1309450052714,88.9922
1309450112714,88.9726
1309450172714,88.6265
1309450232714,89.3189
1309450292714,89.0401
1309450352714,89.0182
1309450412714,88.7104
1309450472714,89.0111
1309450532714,89.1438
1309450592714,89.1200
1309450652714,88.6392
1309450712714,88.9099
1309450772714,88.7901
1309450832714,88.8415
1309450892714,89.4500
1309450952714,88.8717
1309451012714,88.4436
1309451072714,88.4778
1309451132714,89.2094
1309451192714,88.5949
1309451252714,88.8417
1309451312714,88.8072
1309451372714,88.9641
1309451432714,88.8113
1309451492714,88.4619
1309451552714,88.6419
1309451612714,89.1140
1309451672714,89.1703
1309451732714,88.6825
1309451792714,88.9516
1309451852714,88.8800
1309451912714,88.6228
1309451972714,88.7798
1309452032714,88.7118
1309452092714,88.9296
1309452152714,88.6880
1309452212714,89.1570
1309452272714,88.5714
1309452332714,89.2098
1309452392714,89.3066
1309452452714,88.3534
1309452512714,88.6316
1309452572714,89.0245
1309452632714,88.9747
1309452692714,88.6922
1309452752714,89.2025
1309452812714,88.8381
1309452872714,88.6978
1309452932714,88.7602
1309452992714,89.2269
1309453052714,88.8908
1309453112714,88.5920
1309453172714,88.5974
1309453232743,88.5936
1309453292743,89.3476
1309453352743,88.9101
1309453412743,88.5515
1309453472743,89.1938
1309453532743,89.0544
1309453592743,88.9085
1309453652743,88.6820
1309453712743,88.6413
1309453772743,89.1870
1309453832743,89.2253
1309453892743,88.8978
1309453952743,88.7834
1309454012743,88.7229
1309454072743,89.3908
1309454132743,88.9469
1309454192743,89.1443
1309454252743,88.7623
1309454312743,88.9874
1309454372743,88.9636
1309454432743,88.7911
1309454492743,88.9018
1309454552743,88.9975
1309454612743,88.7756
1309454672743,88.7637
1309454732743,88.7773
1309454792743,88.8515
1309454852743,88.7842
1309454912743,88.8818
1309454972743,88.8806
1309455032743,88.8900
1309455092743,88.8232
1309455152743,89.2147
1309455212743,88.9655
1309455272743,89.2316
1309455332743,88.7929
1309455392743,89.2587
1309455452743,88.8967
1309455512743,88.7801
1309455572743,89.4005
1309455632743,89.0037
1309455692743,88.8024
1309455752743,88.8379
1309455812743,89.1484
1309455872743,89.2534
1309455932743,88.6684
1309455992743,89.5707
1309456052743,88.8655
1309456112743,88.9065
1309456172743,88.7570
1309456232743,89.0023
1309456292743,89.0883
1309456352743,89.1565
1309456412743,89.2805
1309456472743,89.7452
1309456532743,89.1161
1309456592743,88.9896
1309456652743,89.2252
1309456712743,89.1468
1309456772743,89.3329
1309456832753,89.0181
1309456892753,89.0314
1309456952753,89.3673
1309457012753,88.9377
1309457072753,89.1525
1309457132753,89.2250
1309457192753,89.1868
1309457252753,88.9376
1309457312753,89.4147
1309457372753,89.1320
1309457432753,88.9391
1309457492753,89.2370
1309457552753,88.8683
1309457612753,89.3201
1309457672753,89.3266
1309457732753,89.1416
1309457792753,89.3117
1309457852753,89.3847